Time,TemperatureF,DewpointF,PressureIn,WindDirection,WindDirectionDegrees,WindSpeedMPH,WindSpeedGustMPH,Humidity,HourlyPrecipIn,Conditions,Clouds,dailyrainin,SoftwareType,DateUTC
2013-08-17 00:03:00,56.0,54.0,-100.00,SSW,195,0.0,0.0,96,-99.99,,,-99.99,,2013-08-17 05:03:00,
2013-08-17 00:42:00,54.0,53.0,-100.00,NNW,345,0.0,0.0,96,-99.99,,,-99.99,,2013-08-17 05:42:00,
2013-08-17 00:52:00,54.0,53.0,-100.00,NNW,345,0.0,0.0,96,-99.99,,,-99.99,,2013-08-17 05:52:00,
2013-08-17 01:01:00,54.0,53.0,-100.00,NNW,345,0.0,0.0,96,-99.99,,,-99.99,,2013-08-17 06:01:00,
2013-08-17 01:10:00,53.0,52.0,-100.00,NNW,330,0.0,0.0,97,-99.99,,,-99.99,,2013-08-17 06:10:00,
2013-08-17 01:42:00,53.0,52.0,-100.00,NNW,330,0.0,0.0,97,-99.99,,,-99.99,,2013-08-17 06:42:00,
2013-08-17 01:52:00,53.0,52.0,-100.00,NNW,330,0.0,0.0,97,-99.99,,,-99.99,,2013-08-17 06:52:00,
2013-08-17 02:01:00,53.0,52.0,-100.00,NNW,330,0.0,0.0,97,-99.99,,,-99.99,,2013-08-17 07:01:00,
2013-08-17 02:10:00,52.0,51.0,-100.00,WNW,295,0.0,0.0,97,-99.99,,,-99.99,,2013-08-17 07:10:00,
2013-08-17 02:42:00,52.0,51.0,-100.00,WNW,295,0.0,0.0,97,-99.99,,,-99.99,,2013-08-17 07:42:00,
2013-08-17 02:52:00,52.0,51.0,-100.00,WNW,295,0.0,0.0,97,-99.99,,,-99.99,,2013-08-17 07:52:00,
2013-08-17 03:01:00,52.0,51.0,-100.00,WNW,295,0.0,0.0,97,-99.99,,,-99.99,,2013-08-17 08:01:00,
2013-08-17 03:10:00,51.0,51.0,-100.00,ENE,70,0.0,0.0,97,-99.99,,,-99.99,,2013-08-17 08:10:00,
2013-08-17 03:42:00,51.0,51.0,-100.00,ENE,70,0.0,0.0,97,-99.99,,,-99.99,,2013-08-17 08:42:00,
2013-08-17 03:52:00,51.0,51.0,-100.00,ENE,70,0.0,0.0,97,-99.99,,,-99.99,,2013-08-17 08:52:00,
2013-08-17 04:01:00,51.0,51.0,-100.00,ENE,70,0.0,0.0,97,-99.99,,,-99.99,,2013-08-17 09:01:00,
2013-08-17 04:10:00,50.0,49.0,-100.00,NW,320,0.0,0.0,97,-99.99,,,-99.99,,2013-08-17 09:10:00,
2013-08-17 04:43:00,50.0,49.0,-100.00,NW,320,0.0,0.0,97,-99.99,,,-99.99,,2013-08-17 09:43:00,
2013-08-17 04:53:00,50.0,49.0,-100.00,NW,320,0.0,0.0,97,-99.99,,,-99.99,,2013-08-17 09:53:00,
2013-08-17 05:03:00,50.0,49.0,-100.00,NW,320,0.0,0.0,97,-99.99,,,-99.99,,2013-08-17 10:03:00,
2013-08-17 05:11:00,49.0,49.0,-100.00,ESE,120,1.0,2.0,97,-99.99,,,-99.99,,2013-08-17 10:11:00,
2013-08-17 05:42:00,49.0,49.0,-100.00,ESE,120,1.0,2.0,97,-99.99,,,-99.99,,2013-08-17 10:42:00,
2013-08-17 05:53:00,49.0,49.0,-100.00,ESE,120,1.0,2.0,97,-99.99,,,-99.99,,2013-08-17 10:53:00,
2013-08-17 06:02:00,49.0,49.0,-100.00,ESE,120,1.0,2.0,97,-99.99,,,-99.99,,2013-08-17 11:02:00,
2013-08-17 06:10:00,49.0,48.0,-100.00,North,0,1.0,2.0,97,-99.99,,,-99.99,,2013-08-17 11:10:00,
2013-08-17 06:42:00,49.0,48.0,-100.00,North,0,1.0,2.0,97,-99.99,,,-99.99,,2013-08-17 11:42:00,
2013-08-17 06:52:00,49.0,48.0,-100.00,North,0,1.0,2.0,97,-99.99,,,-99.99,,2013-08-17 11:52:00,
2013-08-17 07:01:00,49.0,48.0,-100.00,North,0,1.0,2.0,97,-99.99,,,-99.99,,2013-08-17 12:01:00,
2013-08-17 07:10:00,53.0,52.0,-100.00,NW,325,0.0,0.0,97,-99.99,,,-99.99,,2013-08-17 12:10:00,
2013-08-17 07:42:00,53.0,52.0,-100.00,NW,325,0.0,0.0,97,-99.99,,,-99.99,,2013-08-17 12:42:00,
2013-08-17 07:52:00,53.0,52.0,-100.00,NW,325,0.0,0.0,97,-99.99,,,-99.99,,2013-08-17 12:52:00,
2013-08-17 08:01:00,53.0,52.0,-100.00,NW,325,0.0,0.0,97,-99.99,,,-99.99,,2013-08-17 13:01:00,
2013-08-17 08:42:00,61.0,60.0,-100.00,SSW,200,1.0,1.0,97,-99.99,,,-99.99,,2013-08-17 13:42:00,
2013-08-17 08:52:00,61.0,60.0,-100.00,SSW,200,1.0,1.0,97,-99.99,,,-99.99,,2013-08-17 13:52:00,
2013-08-17 09:01:00,61.0,60.0,-100.00,SSW,200,1.0,1.0,97,-99.99,,,-99.99,,2013-08-17 14:01:00,
2013-08-17 09:10:00,71.0,63.0,-100.00,NE,40,0.0,1.0,75,-99.99,,,-99.99,,2013-08-17 14:10:00,
2013-08-17 09:42:00,71.0,63.0,-100.00,NE,40,0.0,1.0,75,-99.99,,,-99.99,,2013-08-17 14:42:00,
2013-08-17 09:52:00,71.0,63.0,-100.00,NE,40,0.0,1.0,75,-99.99,,,-99.99,,2013-08-17 14:52:00,
2013-08-17 10:01:00,71.0,63.0,-100.00,NE,40,0.0,1.0,75,-99.99,,,-99.99,,2013-08-17 15:01:00,
2013-08-17 10:10:00,78.0,53.0,-100.00,ENE,75,1.0,3.0,43,-99.99,,,-99.99,,2013-08-17 15:10:00,
2013-08-17 10:44:00,78.0,53.0,-100.00,ENE,75,1.0,3.0,43,-99.99,,,-99.99,,2013-08-17 15:44:00,
2013-08-17 10:54:00,78.0,53.0,-100.00,ENE,75,1.0,3.0,43,-99.99,,,-99.99,,2013-08-17 15:54:00,
2013-08-17 11:03:00,78.0,53.0,-100.00,ENE,75,1.0,3.0,43,-99.99,,,-99.99,,2013-08-17 16:03:00,
2013-08-17 12:12:00,80.0,50.0,-100.00,SSW,210,4.0,8.0,36,-99.99,,,-99.99,,2013-08-17 17:12:00,
2013-08-17 12:42:00,80.0,50.0,-100.00,SSW,210,4.0,8.0,36,-99.99,,,-99.99,,2013-08-17 17:42:00,
2013-08-17 12:52:00,80.0,50.0,-100.00,SSW,210,4.0,8.0,36,-99.99,,,-99.99,,2013-08-17 17:52:00,
2013-08-17 13:02:00,80.0,50.0,-100.00,SSW,210,4.0,8.0,36,-99.99,,,-99.99,,2013-08-17 18:02:00,
2013-08-17 13:42:00,80.0,49.0,-100.00,West,265,2.0,7.0,33,-99.99,,,-99.99,,2013-08-17 18:42:00,
2013-08-17 13:52:00,80.0,49.0,-100.00,West,265,2.0,7.0,33,-99.99,,,-99.99,,2013-08-17 18:52:00,
2013-08-17 14:01:00,80.0,49.0,-100.00,West,265,2.0,7.0,33,-99.99,,,-99.99,,2013-08-17 19:01:00,
2013-08-17 14:11:00,80.0,49.0,-100.00,West,265,2.0,7.0,33,-99.99,,,-99.99,,2013-08-17 19:11:00,
2013-08-17 14:42:00,82.0,47.0,-100.00,WSW,245,4.0,7.0,29,-99.99,,,-99.99,,2013-08-17 19:42:00,
2013-08-17 14:52:00,82.0,47.0,-100.00,WSW,245,4.0,7.0,29,-99.99,,,-99.99,,2013-08-17 19:52:00,
2013-08-17 15:02:00,82.0,47.0,-100.00,WSW,245,4.0,7.0,29,-99.99,,,-99.99,,2013-08-17 20:02:00,
2013-08-17 15:11:00,79.0,47.0,-100.00,SW,235,3.0,6.0,32,-99.99,,,-99.99,,2013-08-17 20:11:00,
2013-08-17 15:42:00,79.0,47.0,-100.00,SW,235,3.0,6.0,32,-99.99,,,-99.99,,2013-08-17 20:42:00,
2013-08-17 15:52:00,79.0,47.0,-100.00,SW,235,3.0,6.0,32,-99.99,,,-99.99,,2013-08-17 20:52:00,
2013-08-17 16:01:00,79.0,47.0,-100.00,SW,235,3.0,6.0,32,-99.99,,,-99.99,,2013-08-17 21:01:00,
2013-08-17 16:11:00,83.0,47.0,-100.00,North,5,1.0,9.0,29,-99.99,,,-99.99,,2013-08-17 21:11:00,
2013-08-17 16:42:00,83.0,47.0,-100.00,North,5,1.0,9.0,29,-99.99,,,-99.99,,2013-08-17 21:42:00,
2013-08-17 16:54:00,83.0,47.0,-100.00,North,5,1.0,9.0,29,-99.99,,,-99.99,,2013-08-17 21:54:00,
2013-08-17 17:03:00,83.0,47.0,-100.00,North,5,1.0,9.0,29,-99.99,,,-99.99,,2013-08-17 22:03:00,
2013-08-17 17:11:00,82.0,47.0,-100.00,SSW,205,4.0,7.0,29,-99.99,,,-99.99,,2013-08-17 22:11:00,
2013-08-17 17:42:00,82.0,47.0,-100.00,SSW,205,4.0,7.0,29,-99.99,,,-99.99,,2013-08-17 22:42:00,
2013-08-17 17:52:00,82.0,47.0,-100.00,SSW,205,4.0,7.0,29,-99.99,,,-99.99,,2013-08-17 22:52:00,
2013-08-17 18:02:00,82.0,47.0,-100.00,SSW,205,4.0,7.0,29,-99.99,,,-99.99,,2013-08-17 23:02:00,
2013-08-17 18:11:00,80.0,47.0,-100.00,South,190,4.0,7.0,31,-99.99,,,-99.99,,2013-08-17 23:11:00,
2013-08-17 18:42:00,80.0,47.0,-100.00,South,190,4.0,7.0,31,-99.99,,,-99.99,,2013-08-17 23:42:00,
2013-08-17 18:52:00,80.0,47.0,-100.00,South,190,4.0,7.0,31,-99.99,,,-99.99,,2013-08-17 23:52:00,
2013-08-17 19:01:00,80.0,47.0,-100.00,South,190,4.0,7.0,31,-99.99,,,-99.99,,2013-08-18 00:01:00,
2013-08-17 20:10:00,67.0,56.0,-100.00,ESE,105,0.0,0.0,68,-99.99,,,-99.99,,2013-08-18 01:10:00,
2013-08-17 20:52:00,67.0,56.0,-100.00,ESE,105,0.0,0.0,68,-99.99,,,-99.99,,2013-08-18 01:52:00,
2013-08-17 21:02:00,67.0,56.0,-100.00,ESE,105,0.0,0.0,68,-99.99,,,-99.99,,2013-08-18 02:02:00,
2013-08-17 22:10:00,59.0,57.0,-100.00,WNW,285,0.0,2.0,93,-99.99,,,-99.99,,2013-08-18 03:10:00,
2013-08-17 22:43:00,59.0,57.0,-100.00,WNW,285,0.0,2.0,93,-99.99,,,-99.99,,2013-08-18 03:43:00,
2013-08-17 22:53:00,59.0,57.0,-100.00,WNW,285,0.0,2.0,93,-99.99,,,-99.99,,2013-08-18 03:53:00,
2013-08-17 23:02:00,-999.0,-99.9,-100.00,WNW,285,0.0,2.0,-999,-99.99,,,-99.99,,2013-08-18 04:02:00,
2013-08-17 23:42:00,57.0,56.0,-100.00,NNW,345,0.0,0.0,95,-99.99,,,-99.99,,2013-08-18 04:42:00,
2013-08-17 23:53:00,57.0,56.0,-100.00,NNW,345,0.0,0.0,95,-99.99,,,-99.99,,2013-08-18 04:53:00,